This demonstration page uses our WeatherBlox Daily Observations layout. Learn more.

Left ArrowRight Arrow

38.20091, -84.87328

Hourly Observations for January 25, 2015

Temp ( °F °C ) Dew Point ( °F °C ) Humidity (%) Winds ( mph kmh ) Pressure ( in mb ) Visibility ( mi km ) Precip ( " mm )
12:53 am 00:53 Clear 34 1.1 29 -1.7 82 82 SSW 8 13 29.82 1010 10 16 0.00 0.00
1:53 am 01:53 Clear 35 1.7 30 -1.1 82 82 SSW 8 13 29.81 1009 10 16 0.00 0.00
2:53 am 02:53 Clear 36 2.2 30 -1.1 79 79 S 8 13 29.79 1009 10 16 0.00 0.00
3:53 am 03:53 Mostly Clear 36 2.2 30 -1.1 79 79 SSW 7 11 29.78 1008 10 16 0.00 0.00
4:53 am 04:53 Clear 37 2.8 30 -1.1 76 76 SSW 10 17 29.78 1008 10 16 0.00 0.00
5:53 am 05:53 Clear 37 2.8 30 -1.1 76 76 SSW 12 19 29.76 1008 10 16 0.00 0.00
6:53 am 06:53 Mostly Clear 37 2.8 30 -1.1 76 76 S 9 15 29.75 1007 10 16 0.00 0.00
7:53 am 07:53 Mostly Sunny 37 2.8 30 -1.1 76 76 S 9 15 29.75 1008 10 16 0.00 0.00
8:53 am 08:53 Sunny 37 2.8 30 -1.1 76 76 S 8 13 29.74 1007 10 16 0.00 0.00
9:53 am 09:53 Partly Cloudy 38 3.3 31 -0.6 76 76 S 9 15 29.74 1007 10 16 0.00 0.00
10:53 am 10:53 Cloudy 39 3.9 31 -0.6 73 73 S 7 11 29.74 1007 10 16 0.00 0.00
11:53 am 11:53 Cloudy 40 4.4 32 0 73 73 S 8 13 29.70 1006 10 16 0.00 0.00
12:53 pm 12:53 Cloudy 42 5.6 32 0 68 68 S 8 13 29.69 1005 10 16 0.00 0.00
1:53 pm 13:53 Cloudy 42 5.6 33 0.6 71 71 ESE 5 7 29.67 1005 10 16 0.00 0.00
2:53 pm 14:53 Cloudy 41 5 34 1.1 76 76 ESE 7 11 29.64 1004 10 16 0.00 0.00
3:53 pm 15:53 Cloudy 41 5 35 1.7 79 79 E 5 7 29.62 1003 10 16 0.01 0.25
4:53 pm 16:53 Cloudy 41 5 36 2.2 82 82 ENE 5 7 29.64 1004 10 16 0.00 0.03
5:53 pm 17:53 Cloudy with Light Rain 40 4.4 36 2.2 86 86 Calm 29.64 1004 7 11 0.02 0.51
6:53 pm 18:53 Cloudy with Light Rain 39 3.9 37 2.8 93 93 E 3 6 29.66 1004 6 10 0.05 1.27
7:22 pm 19:22 Cloudy with Light Rain 39 3.9 38 3.3 96 96 ESE 3 6 29.68 1005 5 8 0.03 0.76
7:53 pm 19:53 Cloudy with Rain 40 4.4 38 3.3 93 93 Calm 29.67 1005 3 5 0.06 1.52
8:01 pm 20:01 Cloudy with Rain 39 3.9 38 3.3 96 96 ESE 5 7 29.68 1005 3 4 0.01 0.25
8:11 pm 20:11 Cloudy with Light Rain 40 4.4 38 3.3 93 93 ESE 5 7 29.68 1005 3 5 0.02 0.51
8:18 pm 20:18 Cloudy with Light Rain 40 4.4 39 3.9 97 97 SE 3 6 29.68 1005 3 4 0.03 0.76
8:48 pm 20:48 Cloudy with Light Rain 39 4 39 4 100 100 ESE 3 6 29.68 1005 2 3 0.06 1.52
8:53 pm 20:53 Cloudy with Light Rain 40 4.4 39 3.9 97 97 SE 6 9 29.66 1004 2 3 0.07 1.78
9:12 pm 21:12 Cloudy with Light Rain 41 5 40 4.4 96 96 SSE 3 6 29.68 1005 3 5 0.01 0.25
9:19 pm 21:19 Cloudy with Light Rain 41 5 40 4.4 96 96 Calm 29.68 1005 3 4 0.02 0.51
9:31 pm 21:31 Cloudy with Light Rain 41 5 40 4.4 96 96 SE 3 6 29.68 1005 4 6 0.02 0.51
9:41 pm 21:41 Cloudy with Mist and Fog 41 5 39 3.9 93 93 Calm 29.68 1005 3 4 0.02 0.51
9:53 pm 21:53 Cloudy with Mist and Fog 41 5 40 4.4 96 96 VRB 6 9 29.65 1004 3 4 0.02 0.51
9:58 pm 21:58 Cloudy with Light Rain 40 4.4 39 3.9 97 97 WNW 6 9 29.68 1005 3 4 0.01 0.25
10:09 pm 22:09 Cloudy with Light Rain 40 4.4 39 3.9 97 97 W 3 6 29.68 1005 4 6 0.01 0.25
10:21 pm 22:21 Cloudy 41 5 39 3.9 93 93 WNW 5 7 29.68 1005 10 16 0.01 0.25
10:28 pm 22:28 Cloudy 41 5 39 3.9 93 93 WNW 5 7 29.68 1005 9 14 0.01 0.25
10:53 pm 22:53 Cloudy 40 4.4 39 3.9 97 97 WNW 5 7 29.65 1004 7 11 0.01 0.25
11:28 pm 23:28 Cloudy with Mist and Fog 40 4.4 38 3.3 93 93 NW 5 7 29.68 1005 5 8 0.00 0.00
11:37 pm 23:37 Cloudy 40 4.4 38 3.3 93 93 NW 6 9 29.68 1005 7 11 0.00 0.00
11:53 pm 23:53 Cloudy with Mist and Fog 39 3.9 38 3.3 96 96 NW 8 13 29.66 1004 3 5 0.00 0.00

Powered by AerisWeather